EDT,Max TemperatureF,Mean TemperatureF,Min TemperatureF,Max Dew PointF,MeanDew PointF,Min DewpointF,Max Humidity, Mean Humidity, Min Humidity, Max Sea Level PressureIn, Mean Sea Level PressureIn, Min Sea Level PressureIn, Max VisibilityMiles, Mean VisibilityMiles, Min VisibilityMiles, Max Wind SpeedMPH, Mean Wind SpeedMPH, Max Gust SpeedMPH,PrecipitationIn, CloudCover, Events, WindDirDegrees
2012-10-1,87,78,68,72,70,68,100,88,55,29.84,29.78,29.70,10,6,0,14,7,17,0.17,6,Fog-Rain,121
2012-10-2,84,79,73,73,69,62,94,79,51,29.98,29.81,29.73,10,10,5,18,7,23,0.01,6,Rain,180
2012-10-3,78,73,68,68,64,61,84,74,60,30.20,30.10,29.99,10,10,10,9,2,22,0.04,3,Rain,297
2012-10-4,82,74,66,70,65,57,100,87,45,30.29,30.23,30.16,10,8,2,8,1,12,0.61,5,Rain,285
2012-10-5,80,72,63,67,63,57,100,86,48,30.19,30.15,30.04,10,5,0,9,2,13,0.00,1,Fog,126
2012-10-6,85,74,63,64,59,56,93,58,37,30.04,29.95,29.89,10,10,9,10,2,15,0.00,0,,243
2012-10-7,82,72,62,62,61,59,87,70,47,30.07,29.99,29.94,10,10,10,16,6,21,0.00,2,,316
2012-10-8,62,58,54,55,50,48,89,74,67,30.15,30.10,30.05,10,10,10,15,8,20,0.00,8,,25
2012-10-9,70,61,51,50,48,46,89,77,49,30.18,30.13,30.08,10,10,6,13,6,16,T,5,,6
2012-10-10,77,64,50,55,51,47,100,76,46,30.16,30.12,30.05,10,10,4,14,5,21,0.00,4,,265
2012-10-11,73,63,53,52,49,44,93,64,41,30.30,30.23,30.15,10,10,10,13,4,17,0.00,0,,33
2012-10-12,82,68,54,56,54,50,93,65,42,30.26,30.21,30.15,10,10,8,12,4,15,0.00,0,,1
2012-10-13,75,67,58,55,52,48,73,62,46,30.40,30.32,30.26,10,10,10,16,7,21,0.00,1,,68
2012-10-14,79,68,57,67,60,51,93,77,60,30.27,30.16,30.05,10,10,10,12,4,15,T,4,Rain,114
2012-10-15,80,70,60,66,60,45,93,73,38,30.04,29.91,29.81,10,10,7,16,6,25,0.00,3,,242
2012-10-16,73,62,51,51,44,40,77,52,31,30.00,29.93,29.88,10,10,10,12,4,14,0.00,0,,33
2012-10-17,74,64,53,51,47,39,83,61,29,30.01,29.94,29.88,10,10,9,10,3,15,0.00,0,,136
2012-10-18,80,69,57,63,58,53,93,75,48,29.91,29.84,29.78,10,10,9,15,4,18,T,3,,164
2012-10-19,76,66,55,64,41,28,93,46,18,29.86,29.81,29.75,10,10,10,15,4,22,0.00,0,,271
2012-10-20,73,64,54,44,39,32,55,42,31,29.96,29.88,29.83,10,10,10,14,4,21,0.00,0,,286
2012-10-21,73,62,50,49,44,39,80,54,33,30.15,30.09,29.96,10,10,8,12,3,15,0.00,0,,16
2012-10-22,77,64,51,53,48,45,89,60,33,30.25,30.18,30.13,10,10,10,8,1,12,0.00,0,,73
2012-10-23,78,65,52,52,48,43,89,58,29,30.22,30.16,30.11,10,10,9,9,2,16,0.00,0,,106
2012-10-24,81,69,56,59,55,49,100,67,42,30.20,30.14,30.08,10,10,4,10,3,12,0.00,0,,71
2012-10-25,83,72,60,62,59,56,93,68,40,30.11,30.07,30.02,10,10,10,14,6,17,0.00,2,,72
2012-10-26,80,71,61,62,57,51,97,66,39,30.04,29.96,29.88,10,10,9,17,9,23,0.00,0,,33
2012-10-27,75,68,61,59,57,55,90,72,50,29.86,29.76,29.68,10,10,10,17,9,24,0.00,3,,354
2012-10-28,75,65,54,54,49,41,77,60,38,29.73,29.69,29.63,10,10,10,17,9,25,0.00,2,,321
2012-10-29,64,55,45,40,33,30,70,49,30,29.74,29.69,29.62,10,10,10,23,14,35,0.00,2,,297
2012-10-30,59,52,45,29,23,17,49,35,22,29.76,29.64,29.58,10,10,10,20,9,30,0.00,2,,280
2012-10-31,65,55,44,27,21,11,49,30,12,29.86,29.80,29.76,10,10,10,16,8,28,0.00,0,,275